Погода в Цевле

Россия / Псковская область     57°02′43″N   30°16′47″E
темп.,
°C
ветер,
м/с
пор.,
м/с
влажн.,
%
обл.,
%
осадки,
мм/ч
давл.,
гПа
погр.,
м
13 апреля, вт
вт1300:00+9ююв41172100 0.0 1022402
03:00+9ююв3994100 0.0 1021366
06:00+7ююв2698100 0.0 1021130
09:00+11ю2481100 0.0 1021274
12:00+15ю2356100 0.0 1020887
15:00+16ю2353100 0.0 10191382
18:00+12ююв3688100 0.2 1018232
21:00+10в1195100 1.6 101833
14 апреля, ср
ср1400:00+10сз1298100 1.4 101767
03:00+9ссз2497100 1.5 1016221
06:00+5ссз4896100 0.6 1016321
09:00+4ссз4894100 2.2 1018403
12:00+4ссз3794100 0.3 1019442
15:00+4с3792100 0.3 1020420
18:00+4ссв3992100 0.0 1020493
21:00+4ссв31094100 0.1 1021502
15 апреля, чт
чт1500:00+4ссв4109283 0.0 1021471
03:00+3ссв41085100 0.0 1021470
06:00+3ссв41279100 0.0 1021500
09:00+3ссв41284100 0.1 1022557
12:00+4ссв51285100 0.9 1022660
15:00+5ссв61387100 1.9 1022713
18:00+5св61390100 0.8 1022701
21:00+4св61393100 1.9 1022657
16 апреля, пт
пт1600:00+4св51394100 1.8 1022620
03:00+5св51295100 1.8 1022653
06:00+4св51294100 0.0 1022614
09:00+5св51191100 0.0 1023661
12:00+8св51082100 0.0 1023808
15:00+10св6972100 0.0 10231060
18:00+10св51075100 0.1 1023925
21:00+8св5127893 0.1 1024569
17 апреля, сб
сб1700:00+5св4128063 0.0 1024445
03:00+5св41178100 0.0 1025476
06:00+5св41180100 0.4 1025445
09:00+6св41077100 0.4 1026473
12:00+9всв476697 0.0 1027686
15:00+13всв5756100 0.0 10261100
18:00+13всв4958100 0.0 10271119
21:00+9всв4126866 0.0 1027403